When you browse on this site, cookies collect data to enhance your experience and personalize the content and advertising you see.
Visit our Privacy Policy to learn more. By continuing to use the site, you agree to this use of cookies and data.
  • In Portugal
  • List of Countries
  • For 7 days
  • Water Temperature
  • Satellite Maps
  • Weather Map
  • Weather Widgets
  • user-avatar
    Login

    Hourly Weather Blagoevgrad

    Today, 18 February, Monday

    Time Temperature Precipitation Wind Pressure Humidity
    00:00 +6°C° 0 mm 1 mps 726 mmHg 64%
    01:00 +6°C° 0 mm 1 mps 726 mmHg 64%
    02:00 +6°C° 0 mm 1 mps 726 mmHg 65%
    03:00 +6°C° 0 mm 1 mps 726 mmHg 64%
    04:00 +6°C° 0 mm 1 mps 726 mmHg 63%
    05:00 +5°C° 0 mm 1 mps 726 mmHg 63%
    06:00 +6°C° 0 mm 1 mps 726 mmHg 62%
    07:00 +6°C° 0 mm 1 mps 726 mmHg 60%
    08:00 +6°C° 0 mm 1 mps 726 mmHg 59%
    09:00 +8°C° 0 mm 1 mps 726 mmHg 55%
    10:00 +11°C° 0 mm 1 mps 726 mmHg 51%
    11:00 +12°C° 0 mm 0 mps 726 mmHg 46%
    12:00 +13°C° 0 mm 0 mps 726 mmHg 45%
    13:00 +14°C° 0 mm 0 mps 725 mmHg 43%
    14:00 +15°C° 0 mm 1 mps 725 mmHg 41%
    15:00 +14°C° 0 mm 0 mps 725 mmHg 44%
    16:00 +13°C° 0 mm 0 mps 725 mmHg 47%
    17:00 +13°C° 0 mm 0 mps 724 mmHg 50%
    18:00 +11°C° 0 mm 0 mps 724 mmHg 53%
    19:00 +10°C° 0 mm 1 mps 724 mmHg 56%
    20:00 +9°C° 0 mm 1 mps 724 mmHg 58%
    21:00 +8°C° 0 mm 1 mps 725 mmHg 60%
    22:00 +8°C° 0 mm 1 mps 725 mmHg 62%
    23:00 +7°C° 0 mm 1 mps 725 mmHg 63%

    Tomorrow, 19 February, Tuesday

    Time Temperature Precipitation Wind Pressure Humidity
    00:00 +7°C° 0 mm 1 mps 725 mmHg 64%
    01:00 +7°C° 0 mm 1 mps 725 mmHg 65%
    02:00 +6°C° 0 mm 1 mps 725 mmHg 66%
    03:00 +6°C° 0 mm 1 mps 725 mmHg 66%
    04:00 +6°C° 0 mm 1 mps 724 mmHg 66%
    05:00 +6°C° 0 mm 1 mps 724 mmHg 66%
    06:00 +6°C° 0 mm 1 mps 724 mmHg 65%
    07:00 +6°C° 0 mm 1 mps 724 mmHg 64%
    08:00 +6°C° 0 mm 1 mps 724 mmHg 63%
    09:00 +8°C° 0 mm 1 mps 724 mmHg 57%
    10:00 +10°C° 0 mm 1 mps 725 mmHg 51%
    11:00 +13°C° 0 mm 1 mps 725 mmHg 46%
    12:00 +13°C° 0 mm 1 mps 724 mmHg 44%
    13:00 +14°C° 0 mm 2 mps 724 mmHg 43%
    14:00 +15°C° 0 mm 2 mps 723 mmHg 42%
    15:00 +14°C° 0 mm 2 mps 723 mmHg 44%
    16:00 +14°C° 0 mm 2 mps 723 mmHg 47%
    17:00 +13°C° 0 mm 1 mps 723 mmHg 50%
    18:00 +12°C° 0 mm 1 mps 723 mmHg 55%
    19:00 +10°C° 0 mm 1 mps 723 mmHg 60%
    20:00 +8°C° 0 mm 1 mps 723 mmHg 65%
    21:00 +8°C° 0 mm 1 mps 723 mmHg 66%
    22:00 +7°C° 0 mm 1 mps 723 mmHg 67%
    23:00 +7°C° 0 mm 1 mps 723 mmHg 69%

    Day after tomorrow, 20 February, Wednesday

    Time Temperature Precipitation Wind Pressure Humidity
    00:00 +6°C° 0 mm 1 mps 723 mmHg 69%
    01:00 +6°C° 0 mm 1 mps 723 mmHg 70%
    02:00 +6°C° 0 mm 1 mps 723 mmHg 71%
    03:00 +6°C° 0 mm 1 mps 723 mmHg 71%
    04:00 +5°C° 0 mm 1 mps 723 mmHg 72%
    05:00 +5°C° 0 mm 1 mps 722 mmHg 72%
    06:00 +5°C° 0 mm 1 mps 723 mmHg 72%
    07:00 +6°C° 0 mm 1 mps 723 mmHg 71%
    08:00 +6°C° 0 mm 1 mps 723 mmHg 70%
    09:00 +8°C° 0 mm 1 mps 723 mmHg 62%
    10:00 +10°C° 0 mm 1 mps 723 mmHg 53%
    11:00 +12°C° 0 mm 2 mps 724 mmHg 45%
    12:00 +13°C° 0 mm 2 mps 723 mmHg 42%
    13:00 +13°C° 0 mm 2 mps 723 mmHg 40%
    14:00 +14°C° 0 mm 2 mps 723 mmHg 38%
    15:00 +13°C° 0 mm 2 mps 723 mmHg 40%
    16:00 +13°C° 0 mm 2 mps 723 mmHg 43%
    17:00 +12°C° 0 mm 2 mps 723 mmHg 45%
    18:00 +10°C° 0 mm 2 mps 723 mmHg 50%
    19:00 +8°C° 0 mm 2 mps 723 mmHg 56%
    20:00 +6°C° 0 mm 2 mps 724 mmHg 61%
    21:00 +6°C° 0 mm 2 mps 724 mmHg 65%
    22:00 +5°C° 0 mm 2 mps 725 mmHg 68%
    23:00 +6°C° 0 mm 1 mps 725 mmHg 72%

    21 February, Thursday

    Time Temperature Precipitation Wind Pressure Humidity
    00:00 +6°C° 0 mm 1 mps 725 mmHg 75%
    01:00 +5°C° 0 mm 1 mps 725 mmHg 79%
    02:00 +5°C° 0 mm 1 mps 725 mmHg 82%
    03:00 +5°C° 0 mm 1 mps 725 mmHg 82%
    04:00 +5°C° 0 mm 1 mps 725 mmHg 83%
    05:00 +5°C° 0 mm 1 mps 725 mmHg 83%
    06:00 +5°C° 0 mm 1 mps 726 mmHg 81%
    07:00 +5°C° 0 mm 1 mps 726 mmHg 80%
    08:00 +5°C° 0 mm 1 mps 727 mmHg 78%
    09:00 +6°C° 0 mm 2 mps 727 mmHg 69%
    10:00 +8°C° 0 mm 2 mps 727 mmHg 61%
    11:00 +10°C° 0 mm 2 mps 727 mmHg 52%
    12:00 +10°C° 0 mm 2 mps 727 mmHg 48%
    13:00 +12°C° 0 mm 2 mps 727 mmHg 45%
    14:00 +12°C° 0 mm 3 mps 726 mmHg 42%
    15:00 +12°C° 0 mm 2 mps 726 mmHg 43%
    16:00 +12°C° 0 mm 2 mps 726 mmHg 44%
    17:00 +12°C° 0 mm 2 mps 726 mmHg 46%
    18:00 +9°C° 0 mm 2 mps 726 mmHg 51%
    19:00 +8°C° 0 mm 1 mps 726 mmHg 55%
    20:00 +7°C° 0 mm 1 mps 726 mmHg 60%
    21:00 +6°C° 0 mm 1 mps 726 mmHg 62%
    22:00 +6°C° 0 mm 1 mps 726 mmHg 65%
    23:00 +6°C° 0 mm 1 mps 726 mmHg 67%

    22 February, Friday

    Time Temperature Precipitation Wind Pressure Humidity
    00:00 +6°C° 0 mm 1 mps 726 mmHg 67%
    01:00 +6°C° 0 mm 1 mps 726 mmHg 67%
    02:00 +5°C° 0 mm 1 mps 725 mmHg 67%
    03:00 +5°C° 0 mm 1 mps 725 mmHg 69%
    04:00 +5°C° 0 mm 1 mps 725 mmHg 72%
    05:00 +5°C° 0 mm 1 mps 724 mmHg 74%
    06:00 +6°C° 0.2 mm 1 mps 724 mmHg 76%
    07:00 +6°C° 0.2 mm 1 mps 724 mmHg 77%
    08:00 +6°C° 0.2 mm 1 mps 723 mmHg 79%
    09:00 +6°C° 0.1 mm 2 mps 723 mmHg 75%
    10:00 +8°C° 0.1 mm 3 mps 723 mmHg 71%
    11:00 +9°C° 0.1 mm 3 mps 723 mmHg 68%
    12:00 +8°C° 0.3 mm 4 mps 722 mmHg 68%
    13:00 +8°C° 0.3 mm 4 mps 722 mmHg 68%
    14:00 +8°C° 0.3 mm 5 mps 721 mmHg 68%
    15:00 +7°C° 0.3 mm 5 mps 721 mmHg 69%
    16:00 +7°C° 0.3 mm 5 mps 721 mmHg 70%
    17:00 +7°C° 0.3 mm 5 mps 721 mmHg 70%
    18:00 +6°C° 0.5 mm 4 mps 721 mmHg 74%
    19:00 +5°C° 0.5 mm 3 mps 721 mmHg 78%
    20:00 +5°C° 0.5 mm 3 mps 722 mmHg 83%
    21:00 +4°C° 0.4 mm 3 mps 722 mmHg 83%
    22:00 +4°C° 0.4 mm 3 mps 723 mmHg 84%
    23:00 +4°C° 0.4 mm 3 mps 723 mmHg 85%

    23 February, Saturday

    Time Temperature Precipitation Wind Pressure Humidity
    00:00 +3°C° 0.3 mm 4 mps 724 mmHg 84%
    01:00 +1°C° 0.3 mm 5 mps 725 mmHg 83%
    02:00 0°C° 0.3 mm 5 mps 726 mmHg 81%
    03:00 -3°C° 0 mm 6 mps 727 mmHg 78%
    04:00 -4°C° 0 mm 6 mps 727 mmHg 74%
    05:00 -6°C° 0 mm 6 mps 728 mmHg 70%
    06:00 -6°C° 0 mm 6 mps 728 mmHg 64%
    07:00 -7°C° 0 mm 5 mps 729 mmHg 58%
    08:00 -8°C° 0 mm 5 mps 729 mmHg 52%
    09:00 -8°C° 0 mm 6 mps 730 mmHg 49%
    10:00 -6°C° 0 mm 6 mps 731 mmHg 45%
    11:00 -5°C° 0 mm 6 mps 731 mmHg 41%
    12:00 -4°C° 0 mm 6 mps 731 mmHg 41%
    13:00 -4°C° 0 mm 6 mps 731 mmHg 41%
    14:00 -3°C° 0 mm 6 mps 730 mmHg 41%
    15:00 -4°C° 0 mm 6 mps 730 mmHg 43%
    16:00 -4°C° 0 mm 5 mps 730 mmHg 46%
    17:00 -5°C° 0 mm 5 mps 729 mmHg 48%
    18:00 -5°C° 0 mm 4 mps 730 mmHg 52%
    19:00 -7°C° 0 mm 4 mps 730 mmHg 56%
    20:00 -8°C° 0 mm 4 mps 730 mmHg 60%
    21:00 -6°C° 0 mm 3 mps 730 mmHg 60%
    22:00 -6°C° 0 mm 3 mps 730 mmHg 59%
    23:00 -6°C° 0 mm 3 mps 730 mmHg 59%
    Show more